Wind_Speed
23 24 24 24 25 25 25 24 24 24 24 25 25 25 24 24 25 24 24 24 24 23 23 24 24 23 23 22 22 22 22 22 22 21 21 21 22 23 22 22 22 23 22
25 25 25 26 25 25 25 25 25 24 24 24 25 25 24 24 25 25 25 25 25 24 24 25 25 25 24 23 23 23 22 22 23 22 22 22 22 22 23 24 24 23 23
26 26 26 26 26 25 25 25 25 26 25 25 25 25 25 25 25 25 25 25 26 25 25 26 26 26 25 25 24 24 24 24 24 23 23 23 22 22 23 23 23 24 24
27 26 26 26 27 26 26 26 27 26 26 26 25 25 26 26 26 27 26 26 25 25 26 27 28 28 27 26 26 26 25 24 24 24 24 23 23 23 24 24 24 24 24
27 26 26 27 26 26 27 27 27 27 27 26 26 26 27 27 26 27 27 27 26 27 26 27 28 28 28 28 27 26 26 26 25 25 24 24 24 24 24 25 25 25 25
27 27 27 27 27 27 27 27 27 27 27 27 27 27 27 27 27 28 28 27 28 27 28 27 28 28 29 29 29 28 27 26 27 26 24 24 25 25 24 25 25 25 24
28 29 29 29 28 28 28 27 27 28 28 28 28 28 27 27 28 28 29 28 28 28 28 28 28 28 29 29 29 28 27 27 26 26 25 25 24 25 25 26 24 25 25
29 29 29 28 28 28 28 27 28 28 28 28 28 27 26 26 28 28 28 28 28 28 28 28 27 28 28 29 29 28 27 26 26 26 25 24 24 24 24 25 25 25 25
29 29 28 28 28 28 28 29 29 28 28 27 27 27 27 27 27 26 27 28 28 28 28 28 28 28 28 28 28 28 27 27 26 26 25 24 23 23 23 24 25 24 24
28 29 29 28 28 28 28 28 28 28 28 27 27 27 27 27 27 26 26 28 28 27 27 27 27 28 28 27 27 27 27 27 26 25 25 25 24 23 24 24 24 24 24
29 29 29 29 28 28 27 27 28 28 28 27 27 26 26 26 27 27 27 26 27 27 26 27 28 28 28 27 26 26 26 26 25 25 25 25 25 25 25 24 23 23 23
29 29 29 28 27 27 27 27 26 26 26 26 25 25 25 25 26 26 26 25 26 26 26 26 27 27 26 27 26 27 27 26 25 25 26 26 25 25 25 24 24 24 23
28 28 27 27 26 26 26 26 26 26 25 25 24 24 25 24 24 25 25 25 25 25 26 26 26 26 25 26 27 27 27 26 26 25 26 26 25 25 24 24 24 24 24
26 26 25 25 25 25 26 26 26 27 26 26 25 25 25 25 25 24 24 25 24 24 24 25 25 25 25 24 25 26 26 26 26 26 26 25 25 24 25 25 24 24 23
25 25 25 24 24 24 25 25 26 26 26 26 25 25 24 24 25 24 24 24 24 24 23 22 23 23 24 23 23 24 24 25 25 25 26 25 24 24 25 24 24 23 23
24 24 24 24 24 24 24 25 25 25 25 25 24 24 23 23 23 24 24 23 23 23 22 23 23 22 22 22 22 23 23 24 25 24 24 23 23 23 23 23 23 23 23
24 24 24 24 23 23 24 24 24 24 24 23 23 24 23 23 23 23 23 22 22 22 22 22 23 23 23 22 22 23 23 23 22 22 22 22 23 23 24 23 23 23 23
23 24 24 24 24 24 24 24 23 23 23 23 23 23 22 22 22 22 22 21 21 21 22 22 22 22 22 22 22 21 21 21 20 20 20 21 22 23 23 23 23 23 23
23 23 23 23 23 23 23 23 22 21 21 22 22 22 22 21 21 21 20 20 20 21 21 21 20 20 21 21 20 20 20 20 20 20 20 20 21 21 22 22 22 22 22
21 22 21 21 21 22 21 21 21 20 20 20 20 20 20 20 19 19 20 20 20 20 19 19 19 19 19 19 19 19 20 20 21 20 20 20 20 20 20 21 21 21 21
20 19 18 18 19 19 19 19 19 19 18 18 18 17 17 17 17 18 18 18 18 18 18 17 18 18 19 18 18 18 18 19 19 19 19 20 20 19 19 20 20 20 20
18 17 17 17 17 17 17 17 17 17 16 16 15 15 15 15 15 16 16 16 16 16 16 17 17 17 17 17 17 17 17 18 18 19 19 19 19 19 19 19 19 19 19
17 17 16 17 17 16 15 15 14 14 14 13 13 13 13 13 13 13 13 13 14 15 16 16 16 16 16 15 16 16 16 17 17 18 18 18 18 18 18 18 18 18 19
16 16 16 16 15 15 14 14 13 12 11 11 11 12 11 11 11 12 12 12 12 13 13 14 14 15 14 14 14 15 15 15 16 17 17 17 17 17 17 17 18 18 19
14 14 14 14 13 13 13 12 12 10 10 10 10 10 10 10 9 9 10 10 10 10 10 11 12 12 12 12 12 12 13 13 14 15 15 15 15 16 16 17 18 18 18
13 13 14 14 13 12 12 12 10 10 10 10 10 9 9 9 8 8 9 9 10 10 11 10 11 11 11 11 10 12 13 13 13 14 14 14 14 15 15 16 17 17 18
Wind_Direction
291 291 289 288 287 287 284 282 281 278 275 274 275 276 272 271 269 266 268 267 265 266 265 263 264 264 262 262 263 263 262 261 259 259 257 257 255 252 252 252 251 250 250
290 293 293 291 289 288 285 281 280 280 278 276 275 275 275 272 271 269 268 268 265 267 266 264 264 263 261 261 262 262 262 261 260 260 258 257 256 254 254 253 253 252 253
290 291 293 292 289 287 285 282 279 279 278 277 275 274 275 274 272 271 268 269 268 269 269 265 263 261 262 261 262 262 262 262 261 261 260 258 257 256 255 254 253 252 253
291 291 292 290 288 286 284 282 280 279 278 277 276 274 274 275 271 269 269 270 270 270 269 266 264 262 262 262 262 261 262 261 262 264 262 261 258 257 255 255 254 254 254
290 290 290 288 287 285 284 283 281 280 279 277 276 276 275 273 271 269 271 270 269 270 270 267 265 263 262 262 263 262 261 260 260 261 261 261 260 257 256 255 256 256 257
292 291 290 288 287 285 283 282 281 280 280 278 278 277 276 273 271 270 270 271 271 272 271 270 266 263 262 261 262 261 262 260 260 259 260 261 260 257 257 256 256 257 258
291 290 289 287 287 285 283 282 281 281 282 280 279 278 278 276 272 270 271 270 270 272 273 271 266 263 262 262 261 261 262 260 260 260 261 263 262 258 257 258 257 257 258
292 291 289 287 286 285 282 281 281 282 283 282 281 279 278 276 274 273 273 273 271 271 271 269 267 264 263 261 260 260 259 259 259 260 261 262 264 262 261 261 259 258 258
293 292 291 288 287 286 284 282 281 283 284 285 283 281 279 277 275 273 273 273 272 271 269 268 267 265 263 261 261 260 258 257 258 260 261 262 262 262 263 261 260 260 260
293 292 291 289 288 287 286 283 282 284 284 285 284 282 280 277 276 274 274 273 272 271 268 265 266 266 262 261 261 259 258 258 258 258 259 259 259 261 262 261 261 261 262
293 292 289 287 286 287 286 283 283 283 284 285 283 281 279 277 277 275 275 273 272 271 269 265 265 265 262 260 259 258 258 258 260 260 260 259 259 261 261 259 261 261 263
293 292 291 290 288 287 286 285 284 283 283 284 283 281 280 278 277 277 276 273 272 271 269 267 265 264 260 258 258 258 259 259 260 260 260 259 260 261 260 260 260 262 264
295 294 291 291 291 289 287 285 283 283 284 284 283 282 280 278 278 278 278 274 273 271 269 267 265 263 261 260 258 256 257 257 259 260 259 258 258 259 260 260 261 264 264
300 298 295 291 291 290 289 287 285 284 284 283 282 282 280 278 277 277 276 275 273 272 271 269 267 263 261 261 259 255 256 257 258 260 260 258 258 259 260 261 261 263 264
303 301 297 295 294 291 289 287 287 285 283 283 283 282 280 278 275 276 276 274 272 270 270 268 267 266 263 262 257 255 256 256 258 259 259 258 258 259 259 260 261 262 263
303 302 300 298 297 295 292 289 289 286 285 285 284 282 281 279 277 276 275 273 270 267 266 265 266 266 265 262 258 255 255 257 257 256 256 256 257 258 259 260 260 262 264
303 301 300 298 297 295 292 291 289 287 286 286 284 283 280 277 275 274 273 271 268 265 264 265 265 265 265 264 262 259 256 257 255 254 254 256 258 259 258 259 259 261 264
304 303 302 299 299 297 294 292 290 288 286 284 282 281 280 277 275 273 270 267 265 265 265 265 264 262 262 262 263 261 258 256 257 257 257 257 258 259 258 258 260 262 265
305 303 303 302 300 298 296 292 290 289 286 284 282 280 278 276 276 273 269 267 266 265 265 265 263 260 259 260 262 261 260 257 255 259 261 259 257 258 258 259 261 263 264
310 310 308 306 303 300 297 294 291 291 289 286 284 282 279 276 275 273 270 269 268 267 265 262 260 260 257 258 261 260 261 260 257 257 261 259 258 258 258 260 261 264 264
316 315 313 313 311 308 302 298 296 295 292 290 289 285 283 279 277 275 272 270 267 265 264 263 259 259 258 256 258 260 261 263 258 255 257 257 257 256 259 260 262 263 266
319 319 318 318 316 313 309 305 301 298 295 292 289 286 285 282 280 277 273 269 265 263 263 263 261 261 259 256 257 259 259 259 258 255 255 257 256 257 260 260 261 263 267
324 325 322 319 320 319 316 314 307 305 303 299 294 290 287 281 279 279 276 274 269 265 264 264 262 261 261 259 258 257 257 257 257 257 258 258 256 259 261 261 261 263 268
325 326 326 326 327 326 322 319 315 314 310 308 305 299 293 289 284 280 280 278 274 269 263 262 262 261 262 265 262 259 259 258 258 257 258 260 260 262 263 262 261 263 267
329 329 332 333 333 332 328 325 325 325 320 320 319 310 300 294 293 290 288 283 277 268 265 265 264 264 264 266 263 259 257 256 258 258 259 259 261 263 264 264 264 266 268
333 334 335 335 335 335 333 330 330 328 323 324 324 320 311 299 295 296 289 284 280 273 271 272 266 262 263 265 265 260 255 256 258 259 259 259 261 264 266 267 265 266 269
Height
5855 5854 5853 5851 5850 5849 5847 5846 5846 5845 5844 5844 5843 5843 5843 5843 5843 5844 5844 5844 5845 5846 5846 5847 5848 5849 5850 5850 5851 5852 5852 5853 5854 5855 5855 5856 5857 5858 5858 5859 5860 5861 5862
5850 5848 5847 5845 5844 5842 5841 5840 5840 5839 5839 5838 5838 5837 5836 5837 5838 5838 5839 5839 5840 5840 5841 5842 5843 5843 5844 5845 5846 5847 5847 5848 5849 5850 5850 5851 5852 5852 5853 5854 5855 5856 5857
5844 5843 5841 5840 5838 5836 5835 5834 5833 5833 5833 5832 5832 5831 5831 5831 5832 5832 5832 5833 5834 5835 5835 5836 5836 5838 5838 5839 5840 5841 5842 5843 5844 5844 5845 5846 5846 5847 5848 5849 5850 5851 5852
5839 5837 5836 5834 5831 5830 5829 5828 5827 5827 5826 5826 5826 5825 5825 5825 5826 5826 5826 5827 5828 5828 5828 5829 5830 5831 5832 5833 5834 5835 5835 5837 5838 5839 5839 5840 5841 5842 5843 5843 5844 5846 5847
5833 5831 5830 5828 5826 5824 5823 5822 5821 5820 5820 5819 5819 5819 5819 5818 5819 5819 5820 5820 5821 5821 5822 5823 5823 5824 5825 5826 5827 5828 5829 5830 5831 5833 5833 5834 5835 5836 5837 5838 5839 5840 5841
5827 5825 5824 5822 5820 5818 5817 5816 5814 5813 5813 5812 5812 5812 5812 5812 5812 5813 5813 5813 5814 5814 5815 5816 5816 5817 5818 5819 5820 5821 5823 5824 5825 5826 5827 5828 5829 5830 5831 5832 5833 5833 5834
5821 5819 5817 5815 5813 5811 5810 5809 5808 5807 5806 5805 5805 5805 5804 5804 5805 5805 5805 5805 5806 5807 5808 5808 5809 5809 5810 5812 5813 5814 5816 5817 5818 5819 5820 5821 5823 5824 5825 5826 5826 5827 5828
5814 5812 5810 5808 5807 5805 5804 5803 5801 5800 5800 5798 5798 5798 5798 5798 5798 5798 5798 5798 5799 5800 5800 5801 5802 5802 5803 5805 5806 5807 5809 5810 5811 5812 5814 5815 5816 5817 5818 5819 5820 5821 5822
5808 5805 5803 5801 5800 5798 5797 5796 5794 5793 5793 5792 5791 5790 5790 5790 5791 5791 5791 5791 5791 5792 5793 5793 5794 5795 5796 5797 5799 5800 5801 5803 5804 5805 5807 5808 5810 5811 5812 5812 5813 5814 5815
5801 5799 5797 5795 5793 5791 5790 5789 5788 5787 5786 5785 5784 5783 5783 5783 5783 5784 5784 5783 5783 5784 5785 5786 5787 5788 5789 5790 5791 5793 5794 5796 5797 5798 5800 5801 5803 5804 5805 5806 5807 5808 5808
5794 5792 5790 5788 5786 5784 5783 5782 5781 5780 5779 5778 5778 5777 5776 5776 5775 5776 5776 5776 5776 5776 5777 5778 5780 5780 5781 5783 5784 5785 5787 5789 5790 5791 5793 5794 5796 5797 5799 5800 5800 5801 5802
5788 5785 5783 5781 5779 5778 5776 5775 5774 5773 5772 5771 5771 5770 5769 5769 5769 5768 5768 5768 5768 5769 5770 5771 5772 5773 5774 5775 5777 5779 5780 5782 5783 5784 5786 5787 5789 5790 5791 5793 5794 5794 5795
5781 5778 5776 5774 5772 5771 5770 5769 5767 5766 5765 5765 5764 5763 5763 5762 5762 5762 5761 5761 5761 5762 5763 5764 5765 5766 5767 5768 5770 5772 5773 5775 5776 5778 5779 5780 5781 5783 5784 5785 5787 5787 5788
5775 5772 5770 5768 5766 5764 5763 5762 5761 5760 5759 5758 5758 5757 5756 5755 5755 5755 5755 5754 5755 5756 5756 5757 5758 5759 5760 5761 5763 5764 5766 5768 5769 5771 5772 5773 5775 5776 5777 5779 5780 5780 5781
5769 5766 5764 5762 5760 5758 5757 5755 5754 5753 5753 5752 5751 5750 5749 5749 5748 5748 5748 5748 5749 5750 5750 5751 5751 5752 5753 5754 5756 5757 5759 5761 5762 5764 5765 5766 5768 5769 5770 5772 5773 5774 5774
5763 5760 5758 5756 5754 5752 5751 5749 5748 5747 5746 5745 5744 5744 5743 5742 5742 5742 5742 5742 5743 5743 5744 5745 5745 5746 5747 5748 5749 5751 5752 5754 5755 5756 5758 5759 5761 5762 5764 5765 5766 5767 5768
5757 5755 5752 5750 5748 5746 5745 5743 5742 5740 5739 5739 5738 5737 5737 5736 5736 5736 5736 5736 5737 5737 5738 5739 5739 5740 5741 5742 5743 5744 5746 5747 5748 5750 5751 5752 5754 5755 5757 5758 5759 5760 5761
5752 5749 5747 5744 5742 5740 5739 5737 5736 5734 5733 5732 5732 5731 5730 5730 5729 5729 5730 5730 5731 5731 5732 5732 5733 5734 5735 5736 5737 5738 5739 5741 5742 5743 5745 5746 5747 5748 5750 5751 5752 5753 5753
5746 5743 5741 5739 5736 5735 5733 5731 5729 5728 5727 5726 5725 5725 5724 5724 5723 5723 5724 5724 5725 5725 5726 5726 5727 5728 5729 5730 5731 5732 5734 5735 5737 5738 5739 5740 5741 5742 5743 5744 5745 5746 5746
5741 5738 5736 5733 5731 5729 5727 5725 5724 5722 5721 5720 5719 5718 5718 5717 5717 5717 5718 5718 5719 5719 5720 5720 5722 5723 5724 5725 5726 5727 5729 5730 5731 5732 5733 5734 5735 5735 5736 5737 5738 5739 5740
5737 5734 5732 5729 5727 5724 5722 5720 5719 5717 5716 5715 5714 5713 5712 5712 5712 5712 5712 5712 5713 5714 5714 5715 5716 5717 5718 5720 5721 5722 5723 5724 5725 5726 5727 5728 5729 5730 5730 5731 5732 5733 5733
5734 5731 5728 5726 5723 5721 5718 5716 5714 5713 5711 5710 5709 5709 5708 5708 5707 5707 5707 5707 5708 5709 5710 5711 5712 5713 5713 5714 5715 5716 5718 5719 5719 5720 5721 5722 5723 5724 5724 5725 5726 5726 5727
5731 5728 5726 5723 5720 5717 5715 5713 5711 5709 5708 5706 5705 5704 5704 5704 5703 5703 5703 5703 5704 5704 5705 5706 5707 5708 5709 5710 5711 5711 5712 5713 5714 5715 5716 5717 5718 5718 5719 5719 5720 5720 5721
5728 5726 5723 5720 5718 5715 5713 5711 5708 5707 5705 5704 5703 5701 5701 5700 5700 5700 5700 5700 5700 5701 5701 5702 5703 5704 5704 5705 5706 5707 5707 5708 5709 5710 5710 5711 5712 5713 5713 5713 5714 5714 5715
5726 5724 5721 5719 5716 5714 5711 5709 5707 5705 5704 5702 5701 5699 5699 5698 5698 5697 5697 5697 5697 5697 5698 5698 5699 5700 5700 5701 5702 5703 5703 5704 5705 5705 5706 5706 5707 5708 5708 5708 5708 5708 5709
5725 5723 5720 5717 5715 5713 5711 5708 5706 5704 5703 5701 5699 5698 5697 5696 5696 5695 5695 5695 5694 5694 5695 5695 5696 5696 5697 5698 5698 5699 5699 5700 5700 5701 5701 5702 5702 5702 5703 5703 5703 5703 5702